This is the latest recevied weather packets stored in our database for station/object W6MAF. If no packets are shown the sender has not sent any weather packets the latest 10 day(s).
| Time | Temp. | Humidity | Pressure | Rain* | Wind** | Luminosity | Snow |
|---|---|---|---|---|---|---|---|
| 1788328486 | 17.22° C | 24% | - | 0 mm | 5.36 m/s, 166° | - | - |
| 1788328189 | 17.22° C | 24% | - | 0 mm | 6.26 m/s, 167° | - | - |
| 1788327888 | 17.22° C | 23% | - | 0 mm | 3.58 m/s, 153° | - | - |
| 1788327590 | 17.22° C | 22% | - | 0 mm | 4.02 m/s, 158° | - | - |
| 1788327292 | 17.22° C | 20% | - | 0 mm | 5.36 m/s, 173° | - | - |
| 1788326995 | 17.22° C | 18% | - | 0 mm | 4.47 m/s, 179° | - | - |
| 1788326697 | 17.78° C | 18% | - | 0 mm | 4.47 m/s, 177° | - | - |
| 1788326399 | 17.78° C | 17% | - | 0 mm | 4.92 m/s, 172° | - | - |
| 1788326099 | 17.78° C | 18% | - | 0 mm | 5.36 m/s, 183° | - | - |
| 1788325801 | 17.78° C | 18% | - | 0 mm | 4.92 m/s, 172° | - | - |
| 1788325503 | 17.78° C | 18% | - | 0 mm | 5.36 m/s, 163° | - | - |
| 1788324908 | 17.78° C | 20% | - | 0 mm | 6.71 m/s, 166° | - | - |
| 1788324309 | 17.22° C | 22% | - | 0 mm | 5.81 m/s, 172° | - | - |
| 1788324011 | 17.22° C | 22% | - | 0 mm | 6.26 m/s, 142° | - | - |
| 1788323714 | 17.22° C | 23% | - | 0 mm | 5.36 m/s, 160° | - | - |
| 1788323416 | 17.22° C | 24% | - | 0 mm | 4.92 m/s, 163° | - | - |
| 1788323118 | 17.22° C | 26% | - | 0 mm | 5.36 m/s, 150° | - | - |
| 1788322820 | 17.22° C | 27% | - | 0 mm | 5.36 m/s, 165° | - | - |
| 1788322527 | 17.22° C | 27% | - | 0 mm | 3.58 m/s, 158° | - | - |
| 1788322222 | 17.22° C | 28% | - | 0 mm | 4.92 m/s, 174° | - | - |
| 1788321924 | 17.22° C | 28% | - | 0 mm | 6.26 m/s, 173° | - | - |
| 1788321626 | 17.22° C | 29% | - | 0 mm | 5.81 m/s, 166° | - | - |
| 1788321329 | 17.22° C | 29% | - | 0 mm | 5.81 m/s, 170° | - | - |
| 1788321031 | 17.78° C | 29% | - | 0 mm | 4.92 m/s, 167° | - | - |
| 1788320730 | 17.78° C | 29% | - | 0 mm | 6.71 m/s, 158° | - | - |
* Rain latest hour (hover to see other rain measurements)
** Current wind speed in m/s (hover to see current wind gust speed)